When you browse on this site, cookies collect data to enhance your experience and personalize the content and advertising you see.
Visit our Privacy Policy to learn more. By continuing to use the site, you agree to this use of cookies and data.
  • In Netherlands
  • List of Countries
  • For 7 days
  • Water Temperature
  • Satellite Maps
  • Weather Map
  • Weather Widgets
  • user-avatar
    Login

    Hourly Weather Lavrenovichi

    Today, 16 November, Friday

    Time Temperature Precipitation Wind Pressure Humidity
    00:00 +1°C° 0 mm 1 mps 760 mmHg 94%
    01:00 +1°C° 0 mm 1 mps 761 mmHg 94%
    02:00 0°C° 0 mm 1 mps 761 mmHg 93%
    03:00 0°C° 0 mm 1 mps 761 mmHg 92%
    04:00 -1°C° 0 mm 1 mps 762 mmHg 91%
    05:00 -1°C° 0 mm 1 mps 762 mmHg 90%
    06:00 -2°C° 0 mm 1 mps 762 mmHg 89%
    07:00 -4°C° 0 mm 2 mps 762 mmHg 88%
    08:00 -5°C° 0 mm 2 mps 763 mmHg 86%
    09:00 -2°C° 0 mm 1 mps 763 mmHg 83%
    10:00 -1°C° 0 mm 1 mps 763 mmHg 79%
    11:00 0°C° 0 mm 1 mps 764 mmHg 76%
    12:00 +1°C° 0 mm 1 mps 764 mmHg 76%
    13:00 +1°C° 0 mm 1 mps 764 mmHg 77%
    14:00 +1°C° 0 mm 1 mps 764 mmHg 78%
    15:00 0°C° 0 mm 1 mps 764 mmHg 78%
    16:00 -1°C° 0 mm 1 mps 764 mmHg 78%
    17:00 -2°C° 0 mm 1 mps 764 mmHg 78%
    18:00 -2°C° 0 mm 1 mps 764 mmHg 77%
    19:00 -3°C° 0 mm 1 mps 764 mmHg 76%
    20:00 -3°C° 0 mm 1 mps 764 mmHg 75%
    21:00 -3°C° 0 mm 1 mps 764 mmHg 73%
    22:00 -3°C° 0 mm 1 mps 764 mmHg 72%
    23:00 -3°C° 0 mm 1 mps 764 mmHg 70%

    Tomorrow, 17 November, Saturday

    Time Temperature Precipitation Wind Pressure Humidity
    00:00 -3°C° 0 mm 1 mps 764 mmHg 68%
    01:00 -3°C° 0 mm 1 mps 764 mmHg 66%
    02:00 -5°C° 0 mm 0 mps 764 mmHg 65%
    03:00 -5°C° 0 mm 0 mps 764 mmHg 63%
    04:00 -5°C° 0 mm 0 mps 763 mmHg 62%
    05:00 -5°C° 0 mm 0 mps 763 mmHg 60%
    06:00 -5°C° 0 mm 0 mps 763 mmHg 60%
    07:00 -4°C° 0 mm 1 mps 763 mmHg 60%
    08:00 -4°C° 0 mm 1 mps 763 mmHg 60%
    09:00 -2°C° 0 mm 1 mps 763 mmHg 60%
    10:00 -1°C° 0 mm 1 mps 762 mmHg 61%
    11:00 +1°C° 0 mm 1 mps 762 mmHg 62%
    12:00 +1°C° 0 mm 1 mps 761 mmHg 63%
    13:00 -1°C° 0 mm 2 mps 761 mmHg 65%
    14:00 -1°C° 0 mm 2 mps 760 mmHg 67%
    15:00 -1°C° 0 mm 2 mps 760 mmHg 68%
    16:00 -1°C° 0 mm 2 mps 759 mmHg 69%
    17:00 -2°C° 0 mm 3 mps 759 mmHg 71%
    18:00 -2°C° 0 mm 3 mps 758 mmHg 73%
    19:00 -2°C° 0 mm 3 mps 757 mmHg 75%
    20:00 -2°C° 0 mm 3 mps 756 mmHg 78%
    21:00 -2°C° 0 mm 3 mps 756 mmHg 81%
    22:00 -2°C° 0 mm 3 mps 755 mmHg 85%
    23:00 -2°C° 0 mm 3 mps 755 mmHg 89%

    Day after tomorrow, 18 November, Sunday

    Time Temperature Precipitation Wind Pressure Humidity
    00:00 -3°C° 0 mm 4 mps 754 mmHg 90%
    01:00 -2°C° 0 mm 4 mps 753 mmHg 92%
    02:00 -1°C° 0 mm 4 mps 752 mmHg 93%
    03:00 -1°C° 0.1 mm 4 mps 751 mmHg 94%
    04:00 -1°C° 0.1 mm 4 mps 750 mmHg 95%
    05:00 -1°C° 0.1 mm 4 mps 749 mmHg 96%
    06:00 -1°C° 0.1 mm 4 mps 749 mmHg 96%
    07:00 -1°C° 0.1 mm 4 mps 748 mmHg 96%
    08:00 0°C° 0.1 mm 4 mps 748 mmHg 97%
    09:00 0°C° 0.2 mm 4 mps 748 mmHg 97%
    10:00 +1°C° 0.2 mm 3 mps 747 mmHg 97%
    11:00 +1°C° 0.2 mm 3 mps 747 mmHg 97%
    12:00 +1°C° 0.2 mm 3 mps 747 mmHg 97%
    13:00 +1°C° 0.2 mm 3 mps 747 mmHg 97%
    14:00 +1°C° 0.2 mm 3 mps 746 mmHg 97%
    15:00 +1°C° 0.4 mm 3 mps 746 mmHg 97%
    16:00 +1°C° 0.4 mm 3 mps 746 mmHg 97%
    17:00 +1°C° 0.4 mm 3 mps 746 mmHg 97%
    18:00 0°C° 0.2 mm 4 mps 746 mmHg 95%
    19:00 0°C° 0.2 mm 4 mps 746 mmHg 94%
    20:00 0°C° 0.2 mm 4 mps 746 mmHg 93%
    21:00 -1°C° 0.2 mm 4 mps 746 mmHg 93%
    22:00 -1°C° 0.2 mm 4 mps 746 mmHg 93%
    23:00 -1°C° 0.2 mm 4 mps 746 mmHg 93%

    19 November, Monday

    Time Temperature Precipitation Wind Pressure Humidity
    00:00 -1°C° 0.1 mm 4 mps 746 mmHg 94%
    01:00 -1°C° 0.1 mm 4 mps 747 mmHg 94%
    02:00 -1°C° 0.1 mm 4 mps 747 mmHg 94%
    03:00 -1°C° 0.1 mm 4 mps 747 mmHg 95%
    04:00 -1°C° 0.1 mm 4 mps 747 mmHg 95%
    05:00 -1°C° 0.1 mm 4 mps 747 mmHg 95%
    06:00 -1°C° 0.1 mm 4 mps 747 mmHg 95%
    07:00 -1°C° 0.1 mm 4 mps 748 mmHg 94%
    08:00 -1°C° 0.1 mm 4 mps 748 mmHg 94%
    09:00 -1°C° 0.2 mm 4 mps 748 mmHg 93%
    10:00 -1°C° 0.2 mm 4 mps 748 mmHg 93%
    11:00 0°C° 0.2 mm 4 mps 749 mmHg 93%
    12:00 -1°C° 0.3 mm 4 mps 749 mmHg 93%
    13:00 -1°C° 0.3 mm 4 mps 749 mmHg 93%
    14:00 -1°C° 0.3 mm 4 mps 749 mmHg 94%
    15:00 -1°C° 0.1 mm 4 mps 749 mmHg 94%
    16:00 -1°C° 0.1 mm 4 mps 750 mmHg 93%
    17:00 -1°C° 0.1 mm 4 mps 750 mmHg 93%
    18:00 -1°C° 0.1 mm 4 mps 750 mmHg 93%
    19:00 -1°C° 0.1 mm 3 mps 750 mmHg 93%
    20:00 -1°C° 0.1 mm 3 mps 751 mmHg 94%
    21:00 -1°C° 0.1 mm 3 mps 751 mmHg 93%
    22:00 -1°C° 0.1 mm 3 mps 751 mmHg 93%
    23:00 -1°C° 0.1 mm 3 mps 751 mmHg 93%

    20 November, Tuesday

    Time Temperature Precipitation Wind Pressure Humidity
    00:00 -2°C° 0 mm 3 mps 752 mmHg 93%
    01:00 -4°C° 0 mm 3 mps 752 mmHg 92%
    02:00 -4°C° 0 mm 3 mps 752 mmHg 92%
    03:00 -5°C° 0 mm 3 mps 752 mmHg 91%
    04:00 -5°C° 0 mm 3 mps 752 mmHg 90%
    05:00 -6°C° 0 mm 3 mps 752 mmHg 90%
    06:00 -6°C° 0 mm 3 mps 752 mmHg 90%
    07:00 -6°C° 0 mm 3 mps 752 mmHg 90%
    08:00 -6°C° 0 mm 3 mps 752 mmHg 89%
    09:00 -5°C° 0 mm 3 mps 752 mmHg 89%
    10:00 -4°C° 0 mm 4 mps 752 mmHg 88%
    11:00 -4°C° 0 mm 4 mps 752 mmHg 88%
    12:00 -3°C° 0 mm 4 mps 752 mmHg 88%
    13:00 -3°C° 0 mm 4 mps 751 mmHg 88%
    14:00 -2°C° 0 mm 4 mps 751 mmHg 88%
    15:00 -2°C° 0 mm 3 mps 751 mmHg 89%
    16:00 -2°C° 0 mm 3 mps 751 mmHg 89%
    17:00 -2°C° 0 mm 3 mps 751 mmHg 89%
    18:00 -2°C° 0 mm 3 mps 751 mmHg 89%
    19:00 -2°C° 0 mm 3 mps 751 mmHg 89%
    20:00 -4°C° 0 mm 3 mps 751 mmHg 89%
    21:00 -4°C° 0 mm 3 mps 750 mmHg 89%
    22:00 -3°C° 0 mm 2 mps 750 mmHg 89%
    23:00 -3°C° 0 mm 2 mps 750 mmHg 89%

    21 November, Wednesday

    Time Temperature Precipitation Wind Pressure Humidity
    00:00 -4°C° 0 mm 2 mps 750 mmHg 90%
    01:00 -4°C° 0 mm 2 mps 750 mmHg 91%
    02:00 -4°C° 0 mm 2 mps 750 mmHg 92%
    03:00 -4°C° 0 mm 2 mps 750 mmHg 93%
    04:00 -4°C° 0 mm 2 mps 749 mmHg 93%
    05:00 -4°C° 0 mm 2 mps 749 mmHg 94%
    06:00 -5°C° 0 mm 3 mps 749 mmHg 94%
    07:00 -4°C° 0 mm 3 mps 749 mmHg 93%
    08:00 -4°C° 0 mm 3 mps 749 mmHg 93%
    09:00 -3°C° 0 mm 4 mps 749 mmHg 91%
    10:00 -3°C° 0 mm 4 mps 749 mmHg 90%
    11:00 -2°C° 0 mm 4 mps 749 mmHg 89%
    12:00 -2°C° 0 mm 4 mps 748 mmHg 89%
    13:00 -2°C° 0 mm 4 mps 748 mmHg 88%
    14:00 -2°C° 0 mm 4 mps 748 mmHg 88%
    15:00 -3°C° 0 mm 4 mps 747 mmHg 89%
    16:00 -4°C° 0 mm 5 mps 747 mmHg 89%
    17:00 -5°C° 0 mm 5 mps 747 mmHg 90%
    18:00 -5°C° 0 mm 5 mps 747 mmHg 89%
    19:00 -5°C° 0 mm 5 mps 747 mmHg 88%
    20:00 -5°C° 0 mm 5 mps 747 mmHg 88%
    21:00 -5°C° 0 mm 5 mps 746 mmHg 87%
    22:00 -5°C° 0 mm 5 mps 746 mmHg 87%
    23:00 -6°C° 0 mm 5 mps 746 mmHg 87%
    Show more